CZ-3B R/B (43846 NORAD) Tracking and Keplerian Element Data

This shows tracking and keplerian element data for the satellite.

Feedback or suggestion? Click here.




ElementValue
Catalog43846
NameCZ-3B R/B
Epoch Orbit0
Epoch Day341.76644677
Epoch Year2018
RAAN349.81
Inclination28.8798
Eccentricity0.001
Argument of Perigee102.8623
Mean Anonmoly0
Mean Motion16.01555694
Decay Rate2.075E-05
L11 43846U 18103B 18341.76644677 .00002075 -65600-5 00000-0 0 9999
L22 43846 28.8798 349.8100 0010000 102.8623 0.0000 16.01555694 09

Live tracking and technical data element details for CZ-3B R/B (NORAD 43846). CZ-3B R/B can be tracked NOW for your location showing map with azimuth and elevation plus other details from your city location.

Track the satellite on the map from your city or location and see movement details for azimuth, elevation, latitude, longitude, range, height, and movement on the map or in text.







IsCatalogInMostPopularTable: catalog: 43846, numindb: 82
Update: records affected: 1



GetName: 43846 CZ-3B R/B

Hit Count: updated at: Tue, 16 Jul 2019 14:42:23 GMT